Overview Statistics Trail Chart Weather Telemetry Raw packets
 

This is the latest recevied weather packets stored in our database for station/object KD4PMP. If no packets are shown the sender has not sent any weather packets the latest 10 day(s).

<< 49 50 51 52 53 54 55 >>
Time Temp. Humidity Pressure Rain* Wind** Luminosity Snow
1787863773 32.22° C 61% 1012.5 hPa 0 mm - - -
1787863167 32.22° C 60% 1012.5 hPa 0 mm - - -
1787862561 32.78° C 58% 1012.6 hPa 0 mm - - -
1787861954 32.22° C 60% 1012.8 hPa 0 mm - - -
1787861348 31.67° C 61% 1012.8 hPa 0 mm - - -
1787860742 32.22° C 60% 1012.7 hPa 0 mm - - -
1787860135 32.22° C 60% 1012.9 hPa 0 mm - - -
1787859529 31.67° C 62% 1013.1 hPa 0 mm - - -
1787858923 31.11° C 64% 1013 hPa 0 mm - - -
1787858317 30.56° C 63% 1013.1 hPa 0 mm - - -
1787857710 30.56° C 65% 1013.1 hPa 0 mm - - -
1787857103 31.11° C 63% 1013.3 hPa 0 mm - - -
1787856497 31.11° C 64% 1013.3 hPa 0 mm - - -
1787855891 31.11° C 63% 1013.4 hPa 0 mm - - -
1787855284 31.11° C 64% 1013.4 hPa 0 mm - - -
1787854677 31.11° C 63% 1013.4 hPa 0 mm - - -
1787854071 31.11° C 62% 1013.7 hPa 0 mm - - -
1787853465 31.67° C 62% 1013.7 hPa 0 mm - - -
1787852858 31.11° C 61% 1013.9 hPa 0 mm - - -
1787851646 30.56° C 63% 1014.1 hPa 0 mm - - -
1787851040 30.56° C 65% 1014.2 hPa 0 mm - - -
1787850433 30.56° C 66% 1014.5 hPa 0 mm - - -
1787849827 30° C 68% 1014.8 hPa 0 mm - - -
1787849220 30° C 69% 1014.9 hPa 0 mm - - -
1787848614 29.44° C 69% 1014.7 hPa 0 mm - - -

* Rain latest hour (hover to see other rain measurements)
** Current wind speed in m/s (hover to see current wind gust speed)